Home   Weather   Medina   Past weeks

Flag for Saudi Arabia Past Weather in Medina, Saudi Arabia — Yesterday and Last 2 Weeks

Now
73 °F

Sunny.


Feels Like: 73 °F
Forecast: 50 / 74 °F
Wind: 7 mph from North

Location: Madinah

Current Time: Feb 23, 2017 at 5:11:17 pm

Latest Report: Feb 23, 2017 at 4:00 pm


Visibility: 10 mi

Pressure: 30.04 "Hg (28.01 "Hg at 606m altitude)

Humidity: 9%

Dew Point: 12 °F

Location of MedinaLocation

Past Weather in Medina — Graph

°F

Medina Temperature Yesterday

Maximum temperature yesterday: 81 °F (at 4:00 pm)
Minimum temperature yesterday: 54 °F (at 5:00 am)
Average temperature yesterday: 68 °F

High & Low Weather Summary for the Past Weeks

 TemperatureHumidityPressure
High84 °F (Feb 11, 3:00 pm)69% (Feb 9, 1:00 am)30.39 "Hg (Feb 9, 1:00 am)
Low48 °F (Feb 18, 6:00 am)3% (Feb 11, 5:00 pm)29.86 "Hg (Feb 11, 3:00 pm)
Average67 °F26%30.05 "Hg
* Reported Feb 8 4:00 pm — Feb 23 4:00 pm, Medina, Weather by CustomWeather, © 2017

Note: Actual official high and low records may vary slightly from our data, if they occured in-between our weather recording intervals... More about our weather records

Advertising

Medina Weather History for the Previous 24 Hours

Scroll right to see more
 ConditionsComfort  
Time TempWeatherWind HumidityBarometerVisibility
4:00 pm
Thu, Feb 23
73 °FSunny.7 mph9%30.04 "Hg10 mi
2:00 pm72 °FSunny.6 mph12%30.07 "Hg10 mi
1:00 pm70 °FSunny.8 mph13%30.09 "Hg10 mi
12:00 pm68 °FSunny.10 mph14%30.12 "Hg10 mi
11:00 am66 °FSunny.5 mph17%30.12 "Hg10 mi
10:00 am66 °FSunny.10 mph17%30.12 "Hg10 mi
9:00 am63 °FSunny.12 mph20%30.12 "Hg10 mi
8:00 am61 °FSunny.6 mph23%30.09 "Hg10 mi
7:00 am61 °FSunny.6 mph23%30.07 "Hg10 mi
6:00 am61 °FClear.12 mph23%30.04 "Hg10 mi
5:00 am61 °FClear.12 mph23%30.01 "Hg10 mi
4:00 am63 °FClear.6 mph27%30.01 "Hg10 mi
3:00 am64 °FClear.8 mph22%30.01 "Hg10 mi
2:00 am66 °FClear.8 mph19%30.01 "Hg10 mi
12:00 am64 °FClear.6 mph28%30.01 "Hg10 mi
11:00 pm
Wed, Feb 22
66 °FClear.8 mph28%30.01 "Hg10 mi
10:00 pm70 °FClear.9 mph15%29.98 "Hg10 mi
9:00 pm72 °FClear.12 mph12%29.98 "Hg10 mi
8:00 pm73 °FClear.12 mph10%29.95 "Hg10 mi
7:00 pm75 °FClear.9 mph7%29.95 "Hg10 mi
6:00 pm77 °FSunny.17 mph6%29.92 "Hg10 mi
5:00 pm79 °FPassing clouds.18 mph6%29.92 "HgN/A
Weather by CustomWeather, © 2017

See weather overviewHow to use our weather pages